sat.trackr.live / text

‹ back to catalog

PRAETORIAN SDA_603

NORAD 65566 · 2025-203B

PAYLOAD ACTIVE UNKNOWN

§ Identity

Operator
Country
US
Launch date
2025-09-10
Launch site
AFWTR
Launch vehicle
Mass (kg)
RCS (m²)

Purposes: military

External: N2YO · Heavens-Above · Gunter

§ Orbital elements

Epoch: 2026-05-25T03:10:01.267104Z

Period
104.05 min
Inclination
81.3053°
Eccentricity
0.0008542
Mean motion
13.83902948 rev/d
Perigee alt
943.8 km
Apogee alt
956.3 km
Semi-major
7,328.2 km
B*
1.6155e-4
RAAN
32.0254°
Arg perigee
255.6521°
Mean anomaly
104.3687°
Rev number
3,551

§ Raw data

PRAETORIAN SDA_6031 65566U 25203B   26145.13195911  .00000191  00000+0  16155-3 0  99992 65566  81.3053  32.0254 0008542 255.6521 104.3687 13.83902948 35511

JSON: /api/v1/satellites/65566 · /tle

For live sub-satellite position, see the globe view (requires WebGL).

§ Visibility from observer

Set your observer location to see the next 7 days of passes ≥ 10°. The values pass through the URL so the page stays shareable.

No JS? Fill the form by hand. The geolocation button needs JavaScript.